Regional Weather Roundup
Issued by NWS Wakefield, VA

Home | Current Version | Previous Version | Text Only | Print | Product List | Glossary On
Versions: 1 2 3 4 5 6 7 8 9 10 11 12 13 14 15 16 17 18 19 20 21 22 23 24 25 26 27 28 29 30 31 32 33 34 35 36 37 38 39 40 41 42 43 44 45 46 47 48 49 50
847
ASUS41 KAKQ 251415
RWRAKQ

REGIONAL WEATHER ROUNDUP
NATIONAL WEATHER SERVICE WAKEFIELD VA
1000 AM EDT SAT MAR 25 2017

Note: "fair" indicates few or no clouds below 12,000 feet with no
significant weather and/or obstructions to visibility. * = Denotes
station may not report precipitation (e.g., rain,snow,etc.),
thunder or fog.

VAZ042-051-052>054-056-251500-
NORTHERN VIRGINIA

CITY           SKY/WX    TMP DP  RH WIND       PRES   REMARKS
WASH NATIONAL  PTSUNNY   62  50  64 S9        30.21S
DULLES         CLOUDY    64  48  56 S8        30.19F
FORT BELVOIR   MOSUNNY   65  48  54 S6        30.20S
QUANTICO       MOSUNNY   55  49  80 S7        30.22F
FREDERICKSBRG* MOSUNNY   65  51  60 SW10      30.21F
STAFFORD*      MOSUNNY   64  49  59 SW8       30.25S
WARRENTON      MOSUNNY   66  46  47 SW7       30.20F
CULPEPER*      MOSUNNY   64  50  60 SW6       30.22S
MANASSAS*      MOSUNNY   65  49  56 S5        30.21S
LEESBURG*      CLOUDY    64  54  68 SW5       30.20S
WINCHESTER     CLOUDY    63  46  55 SW9       30.19S
FRONT ROYAL*   CLOUDY    64  50  59 S9        30.19S
LURAY*         CLOUDY    64  52  63 SW10      30.21S
$$

VAZ048-049-060>072-079>083-251500-
CENTRAL AND SOUTH CENTRAL VIRGINIA

CITY           SKY/WX    TMP DP  RH WIND       PRES   REMARKS
RICHMOND       CLOUDY    65  50  58 SW14      30.25F
CHESTERFIELD*  FAIR      64  39  39 SW8G18    30.27F
PETERSBURG*    CLOUDY    65  49  58 SW15      30.28S
HANOVER        CLOUDY    64  48  56 SW10      30.26F
TAPPAHANNOCK*  CLOUDY    64  38  38 SE9       30.24F
QUINTON*       FAIR      62  51  67 SW8       30.26S
CHARLOTTSVILLE PTSUNNY   65  49  56 S7        30.22S
GORDONSVILLE*  CLOUDY    63  49  61 SW13      30.22S
ORANGE*        MOSUNNY   63  48  59 SW8       30.23S
LOUISA*        MOSUNNY   66  52  59 SW8       30.22S
BUMPASS*       FAIR      64  49  58 SW12G20   30.23S
FARMVILLE*     MOSUNNY   65  51  59 SW13G18   30.25S
CREWE*         FAIR      64  51  63 SW10G20   30.27S
FORT PICKETT*  FAIR      64  46  51 SW12G17   30.28S
CHASE CITY*    FAIR      62  50  64 W7        30.30S
CLARKSVILLE*   FAIR      63  52  67 SW10G17   30.30F
SOUTH HILL*    MOSUNNY   63  53  71 SW12G18   30.36S
LAWRENCEVILLE* FAIR      65  52  63 SW12      30.29F
EMPORIA*       MOSUNNY   64  52  63 SW12G20   30.31F
$$

VAZ088>098-251500-
SOUTHEAST VIRGINIA

CITY           SKY/WX    TMP DP  RH WIND       PRES   REMARKS
NORFOLK        PTSUNNY   66  51  58 SW16G24   30.28F
VIRGINIA BEACH PTSUNNY   64  50  60 SW13      30.29S
NORFOLK NAVAL  PTSUNNY   65  51  60 SW14G22   30.30S
WEST POINT*    PTSUNNY   64  49  58 SW7       30.28S
SALUDA*        FAIR      63  51  65 SW10G21   30.24F
NEWPORT NEWS   MOSUNNY   65  52  62 SW13      30.28F
LANGLEY AFB    PTSUNNY   64  53  67 SW17      30.27F
FORT EUSTIS    CLOUDY    66  52  60 W9G18     30.25F
WILLIAMSBURG*  CLOUDY    66  54  63 W12G22    30.28F
HR EXEC AP*    FAIR      66  52  59 W12G23    30.29S
FRANKLIN*      MOSUNNY   64  51  63 SW9       30.31F
US460-WAKEFLD  MOSUNNY   64  52  64 SW10G22   30.29F
$$

VAZ020-022-025-037-045-251500-
WEST CENTRAL AND SOUTHWEST VIRGINIA

CITY           SKY/WX    TMP DP  RH WIND       PRES   REMARKS
STAUNTON*      MOSUNNY   63  48  59 S3        30.25S
WAYNESBORO*    MOSUNNY   64  50  59 SW9       30.24R
HOT SPRINGS VA MOSUNNY   54  41  62 W14       30.29R
LYNCHBURG      CLOUDY    61  48  62 S12       30.28S
DANVILLE       PTSUNNY   61  52  72 SW10G20   30.30F
SOUTH BOSTON*  FAIR      63  50  63 SW12G18   30.31R
MARTINSVILLE   MOSUNNY   62  49  60 W7        30.32F
ROANOKE        MOSUNNY   62  47  57 S5        30.29R
BLACKSBURG     PTSUNNY   60  48  63 W5        30.32S
DUBLIN*        MOSUNNY   59  47  65 SW7       30.31R
MARION*        PTSUNNY   56  49  76 E3        30.32S
HILLSVILLE*    PTSUNNY   56  47  72 CALM      30.30S
RICHLANDS*     FAIR      61  46  56 CALM      30.27S
WISE*          SUNNY     61  43  51 S12       30.28S
ABINGDON*      CLOUDY    60  49  66 SE3       30.28S
$$

MDZ021>025-VAZ099-100-251500-
SOUTHERN MARYLAND AND THE DELMARVA PENINSULA

CITY           SKY/WX    TMP DP  RH WIND       PRES   REMARKS
PATUXENT RIVER PTSUNNY   63  52  67 W13       30.21F
BAY BRIDGE APT CLOUDY    64  48  55 S8        30.19S
LEONARDTOWN    CLOUDY    63  46  55 SW12G18   30.23F
DOVER          CLOUDY    64  53  67 SW15      30.17F
GEORGETOWN     SUNNY     65  49  56 W10G22    30.21S
EASTON         MOSUNNY   61  48  63 SW9       30.24S
CAMBRIDGE      SUNNY     64  50  59 VRB7      30.22S
SALISBURY      MOSUNNY   64  50  60 SW15G29   30.22F
OCEAN CITY     CLOUDY    64  49  57 SW15G22   30.22F
WALLOPS ISLAND MOSUNNY   64  50  60 W15G25    30.24F
ACCOMACK*      CLOUDY    63  51  64 SW16G23   30.25F
$$

NCZ012>017-030>032-251500-
NORTH CENTRAL AND EASTERN NORTH CAROLINA

CITY           SKY/WX    TMP DP  RH WIND       PRES   REMARKS
ROANOKE RAPIDS FAIR      64  54  68 SW15G22   30.32S
RALEIGH        PTSUNNY   64  52  64 SW14      30.34F
ELIZABETH CITY CLOUDY    65  52  62 SW12      30.33F
AHOSKIE*         N/A     65  54  66 SW3       30.32F
EDENTON*       CLOUDY    64  52  65 SW7       30.35S
CURRITUCK*     CLOUDY    65  51  60 SW13G22   30.33S
KILL DEVIL HLS NOT AVBL
MANTEO         CLOUDY    64  50  60 W12       30.36R
CAPE HATTERAS  SUNNY     69  50  50 SW10      30.37S
TARBORO*       NOT AVBL
GOLDSBORO      SUNNY     65  57  74 SW8       30.34S
WASHINGTON     SUNNY     64  51  64 SW8       30.36S
GREENVILLE     SUNNY     64  54  68 SW6       30.35S
NEW BERN       MOSUNNY   67  53  61 SW9       30.38R
WILMINGTON     CLOUDY    68  54  60 S6        30.37R
$$

VAZ048-251500-
ELSEWHERE

CITY           SKY/WX    TMP DP  RH WIND       PRES   REMARKS
HARRISBURG PA  CLOUDY    50  42  74 CALM      30.15S
BALTIMORE      CLOUDY    65  49  56 W8        30.18S
ANNAPOLIS      CLOUDY    67  49  52 W7        30.19S
ANDREWS AFB    MOSUNNY   65  48  54 SW10      30.19S
PHILADELPHIA   CLOUDY    58  47  66 SW12      30.17S
HENDERSON NC   PTSUNNY   60  49  68 SW10      30.32S
GREENSBORO     PTSUNNY   61  52  72 W12       30.32F
ROCKY MOUNT    SUNNY     65  55  70 SW8       30.34F
$$

VAZ100-251500-
MARINE

STATION/POSITION TIME  TEMP    WIND        PRES    WAVE   SWELL
                       AIR SEA DIR/SP/G            HT/PER HT/PER
                 (UTC) (F)     (DEG/KT/KT) (MB)    (FT/S) (FT/S)
CAPE MAY NJ      1336   56 43  240/ 10/ 12 1022.3S
LEWES DE         1336   63 44  260/ 14/ 18 1022.4S
OCEAN-CITY-INLET 1336   50 43  220/  9/ 11 1023.8F
WACHAPREAGUE VA  1336   63 49  250/  9/ 15 1024.3F
THOMAS POINT MD  1300   60 44  240/ 11/ 11   N/A
GOOSES REEF MD   1400   55 44  230/ 12/ 14 1023.2    1/ 3
COVE POINT MD    1336   61     270/ 22/ 31 1023.0S
SOLOMONS ISLAND  1336   61 46  260/ 10/ 15   N/A
BISHOPS HEAD MD  1336   55 47  210/  9/ 10 1023.8F
PINEY POINT MD   1342          300/  7/  8   N/A
POTOMAC MD       1400   54 46  280/ 10/ 10 1022.8    2/ 3
CAMBRIDGE MD     1336   62 44  210/  7/ 11 1022.3F
LEWISETTA VA     1336   61 48  260/ 16/ 20 1023.1F
RAPPAHANNOCK LGT 1342          190/ 18/ 20 1025.1F
STINGRAY PT      1350   56     250/  8/ 10 1025.3R
YORK RVR RNG VA  1336   59     260/ 15/ 18 1024.5F
YORKTOWN VA      1336   63 49  240/ 15/ 23 1024.6F
JAMESTOWN VA     1400   62 51  250/ 14/ 19   N/A     1
DOMINION TERM VA 1336   58     250/ 11/ 13 1025.8F
KIPTOPEKE VA     1342      46  250/ 11/ 14   N/A
CHES BAY BRIDGE  1342   61 47  250/ 18/ 21 1025.3F
CAPE HENRY VA    1342   64     240/ 10/ 15   N/A
WILLOUBY STN VA  1342   57     240/ 15/ 16 1026.3S
S CRANEY ISL VA  1336   63     250/ 13/ 19 1025.6F
CAPE HENRY BUOY  1342      48                N/A     2/ 4
CAPE CHARLES BUO 1351      46                N/A     2/ 3
OFFSHORE WE BUOY 1351      47                N/A     2/ 5
64NM E OF VA BCH 1350   53 49  220/ 10/ 12 1026.8F   3/ 6   2/ 6
DUCK PIER NC     1342   59 47  230/ 10/ 11 1026.9R
44100 DUCK FRF   1305      47                N/A     2/ 5
44056 DUCK FRF   1330      48                N/A     2/11
OREGON INLET NC  1342   56 55  190/  7/  7 1027.9R
HATTERAS NC      1342   67 55  240/  6/ 13 1028.1S
DIAMOND SHLS NC  1350   68 76  290/ 16/ 17 1028.3R   3/ 5   2/11
CAPE LOOKOUT NC  1300   67     240/  6/  8 1028.0R
$$




USA.gov is the U.S. government's official web portal to all federal, state and local government web resources and services.